Tracking 18840 objects as of 18-November-2017
HD Live streaming from Space Station
objects crossing your sky now

DSCS 2-15

Track DSCS 2-15 now!
DSCS 2-15 is classified as:


NORAD ID: 13636
Int'l Code: 1982-106A
Perigee: 37,295.7 km
Apogee: 37,327.8 km
Inclination: 16.1 °
Period: 1,514.3 minutes
Semi major axis: 43682 km
RCS: 4.13 m2 (large)
Launch date: October 30, 1982
Source: United States (US)
Launch site: AIR FORCE EASTERN TEST RANGE (AFETR)
aabbcc
Your satellite tracking list
Your tracking list is empty




NASA's NSSDC Master Catalog

Two Line Element Set (TLE):
1 13636U 82106A   17321.81993806 -.00000151 +00000-0 +00000-0 0  9992
2 13636 016.1074 351.1934 0003683 247.4802 113.1469 00.95090675074336
Source of the keplerian elements: AFSPC